Vertical_Velocity
-1 0 -0 -1 -1 -1 -0 -1 -0 1 0 -0 -1 -1 -2 -2 1 5 -6 -1 -5 -1 -0 -3 -3 0 3 -4 -3 -3 2 0 0 1 7 -3 1 2 6 -9 -8 0 -1 3 5
1 0 -0 -0 -1 -1 -1 -0 1 -0 -1 -1 -1 -0 1 -2 12 -2 2 3 1 -1 -2 2 2 2 0 -0 -1 3 -1 2 3 3 2 3 -5 5 -14 -3 1 0 3 -0 -5
-0 -0 1 1 1 -0 0 1 -0 -1 -1 -1 -2 -2 -1 -3 8 5 1 -0 -1 -0 0 -1 -0 2 -1 -2 1 -1 0 3 2 1 9 2 -7 5 6 -1 6 5 4 2 0
-2 -1 1 1 1 0 0 -0 -0 -0 -0 -1 -2 -1 -2 -5 11 -4 -1 -1 -0 -1 -1 -3 0 3 -2 -1 2 -10 -0 -0 6 2 -1 -1 -1 -0 -6 11 4 -0 4 -0 -2
-1 -0 0 1 1 1 0 -1 1 -0 -0 1 -1 -2 0 -3 -0 -0 -1 -1 -0 -1 -2 -4 5 2 -1 -3 -6 -8 3 -0 2 -3 -3 -6 1 5 2 1 0 -1 -1 -2 -2
-1 1 0 -0 1 1 -1 -1 -1 -1 -1 0 -0 -2 10 -9 1 -0 -1 3 -1 1 -1 -4 4 3 -1 -0 -1 0 -1 3 -0 1 0 -9 4 -5 5 1 0 -2 -0 1 -1
-1 2 0 -0 1 -0 -2 -0 0 -1 -0 -0 0 -2 -11 5 -1 -0 -0 -1 0 -2 -2 -2 -1 2 2 0 2 -3 -4 2 2 4 1 0 -4 2 3 -3 -0 0 0 -4 2
-0 1 0 0 0 -1 -1 -0 -1 -1 2 1 -1 10 0 -0 -1 0 1 4 1 3 2 -1 -3 -7 -3 -2 4 4 5 4 7 -1 3 6 7 5 -0 0 -1 -2 -2 -0 1
0 0 1 -1 0 0 -1 -1 0 -0 -2 -2 -3 7 3 0 -7 -2 -2 -2 -2 -0 -2 -3 -6 -3 2 3 5 2 2 -1 5 -0 -0 3 5 5 -0 -1 -1 -2 -0 -0 -7
-1 -0 -0 -1 0 1 -0 0 -1 -1 -1 -2 -1 10 -9 -3 -2 -0 -1 -2 -3 -3 0 -0 -0 -3 -8 -7 5 0 -2 -4 2 3 -2 -0 4 2 -0 -4 0 0 -1 -3 -1
-2 -1 -0 -1 0 1 -1 -4 2 4 -20 0 4 1 -1 0 -4 -3 -4 -4 -4 -6 -0 1 -13 2 6 3 2 2 2 2 -3 3 5 1 0 2 -0 -3 -2 -1 -3 -3 -1
-1 -1 -1 -1 0 1 -1 2 -2 -4 -0 -1 3 -1 -0 1 -1 -4 -11 -0 -9 1 1 2 1 5 0 -1 3 -0 1 -2 -2 -1 5 1 3 1 -1 4 5 3 -2 -1 -7
-1 -1 -1 -1 -1 0 -0 -2 -2 -2 6 0 -2 -3 -1 -5 -1 -4 -6 -0 -0 -6 -0 -3 10 -1 -1 -2 -3 0 3 -1 13 -5 2 2 8 2 3 -0 -6 -5 4 -1 3
-1 -0 -1 -1 -4 -1 -1 -1 -1 -1 6 4 -4 -2 -1 -3 2 -1 -2 1 -3 3 -0 2 3 1 -2 0 5 2 4 3 0 2 6 3 6 3 -0 -2 -4 -4 -4 -1 -4
-1 -0 -1 -0 -2 1 -3 -1 -1 -1 8 3 1 -5 2 -7 -0 -6 -3 2 2 5 7 11 -1 -3 -3 8 2 2 7 5 1 1 4 4 7 14 -2 -7 -4 -4 -3 -2 -1
-0 -0 -1 -1 -1 -1 -2 -1 -1 18 8 4 1 -1 2 -5 -0 1 -2 -6 -5 -3 -2 5 1 -2 10 -1 2 2 -4 -2 1 2 6 5 6 8 1 12 -5 -8 -6 -1 -2
1 0 -1 -0 -1 -1 -2 -1 14 4 7 5 2 -1 0 0 -2 -4 -3 -7 1 2 -1 4 4 2 -3 -3 0 -11 -10 -1 -4 -3 6 1 1 13 2 2 11 6 -4 -3 -1
2 1 -1 -1 -1 -1 -1 10 5 4 2 2 0 -0 -1 3 3 0 -0 -1 -4 -2 1 3 4 -2 3 6 9 3 7 4 3 2 -2 -3 2 15 3 4 1 1 3 -3 -4
2 2 -0 -1 -1 -2 4 4 9 1 3 1 1 1 2 0 4 -2 -1 1 4 3 5 0 5 3 -3 0 3 -4 -5 5 4 -0 4 1 4 12 -6 -9 -9 -4 -6 -5 -5
1 2 -1 -1 -2 -3 4 1 1 0 0 1 2 3 0 1 1 -3 -1 5 1 0 0 4 5 2 2 3 -1 -2 4 6 -1 -2 -3 -5 2 4 -9 -5 -5 -11 -3 -5 -1
-2 8 -2 -1 -1 3 2 3 0 -1 -0 3 1 0 2 1 1 1 4 5 -0 -1 -2 2 5 8 2 -1 5 -5 -4 -3 5 0 3 0 4 8 6 5 4 -1 2 2 -5
-1 6 -1 0 5 -1 0 1 -1 1 -2 0 -1 -0 1 0 -0 -1 1 3 -1 1 1 4 4 1 5 3 1 2 3 2 2 -4 0 1 -7 5 5 4 5 -1 1 -1 8
5 0 -1 -0 -0 1 3 1 -0 1 0 0 0 1 -0 -0 2 -1 0 0 -1 -0 4 4 3 2 10 10 5 -1 0 1 0 2 -1 4 -9 -3 -5 -7 -6 3 -2 -8 1
1 2 -0 -3 -6 -5 -1 2 2 -2 -0 -0 -0 -1 0 -0 0 1 1 1 -2 1 -2 1 0 3 6 7 3 1 -0 -0 3 3 1 -3 -7 -15 -6 -1 -9 -8 -6 7 -3
-1 -0 -1 1 3 1 -2 -2 0 1 -0 -1 2 0 0 -1 0 0 1 2 0 -3 1 3 1 -0 1 0 0 1 0 -0 1 0 5 -7 4 1 3 7 6 7 0 -7 -6
2 -3 -1 -2 1 -3 -0 2 -2 4 1 2 0 1 -0 -1 4 1 -1 1 3 1 -0 -1 2 1 0 -0 1 0 -0 0 0 -2 -1 0 -6 8 -4 -2 -8 -6 4 -4 -1
-1 0 7 -1 2 2 1 1 1 -4 2 3 -4 -5 -3 5 -1 1 -2 -2 -1 1 0 1 1 1 1 0 0 6 -0 -0 -1 -0 8 4 5 -1 -11 -4 -2 6 -1 3 5
Height
1533 1532 1532 1532 1532 1532 1533 1533 1534 1535 1535 1536 1536 1535 1535 1535 1534 1535 1532 1533 1530 1528 1527 1525 1524 1525 1525 1524 1523 1520 1517 1526 1531 1526 1533 1539 1533 1546 1549 1551 1553 1554 1560 1563 1562
1534 1534 1533 1533 1533 1533 1534 1535 1536 1537 1538 1538 1538 1537 1537 1536 1537 1537 1536 1533 1531 1528 1527 1528 1527 1525 1525 1524 1524 1519 1520 1533 1537 1535 1547 1551 1548 1547 1553 1557 1560 1562 1564 1565 1564
1536 1535 1534 1534 1534 1535 1537 1538 1539 1540 1540 1539 1539 1538 1538 1537 1538 1539 1536 1533 1531 1529 1528 1528 1528 1527 1526 1527 1527 1526 1531 1539 1545 1545 1544 1551 1556 1558 1555 1565 1570 1570 1570 1568 1566
1538 1537 1536 1535 1536 1537 1538 1540 1541 1541 1540 1539 1539 1539 1539 1538 1540 1540 1537 1534 1532 1530 1529 1530 1529 1528 1527 1528 1531 1535 1544 1545 1554 1552 1552 1557 1562 1567 1569 1575 1576 1574 1574 1572 1570
1539 1539 1538 1538 1538 1539 1541 1542 1543 1543 1542 1540 1540 1540 1540 1542 1545 1542 1538 1536 1534 1532 1531 1532 1530 1529 1528 1533 1535 1542 1549 1554 1557 1558 1560 1563 1567 1569 1575 1577 1577 1577 1576 1573 1571
1541 1541 1541 1541 1541 1542 1543 1544 1544 1545 1544 1543 1542 1542 1543 1543 1545 1543 1540 1538 1535 1535 1533 1534 1534 1534 1536 1538 1536 1545 1551 1555 1558 1560 1563 1565 1570 1569 1578 1579 1579 1579 1578 1575 1573
1543 1543 1544 1544 1544 1545 1546 1546 1547 1546 1546 1545 1545 1544 1544 1549 1547 1544 1542 1540 1537 1535 1534 1535 1536 1536 1538 1543 1546 1548 1551 1553 1556 1557 1564 1563 1571 1579 1581 1580 1580 1579 1577 1575 1572
1545 1546 1546 1547 1547 1547 1548 1549 1548 1548 1547 1547 1547 1547 1549 1549 1547 1545 1543 1544 1540 1539 1537 1537 1538 1538 1541 1546 1545 1543 1540 1539 1558 1557 1560 1561 1564 1582 1582 1581 1581 1580 1578 1575 1572
1547 1548 1549 1549 1550 1550 1550 1551 1550 1550 1549 1548 1549 1549 1553 1552 1548 1546 1544 1543 1541 1542 1540 1540 1541 1543 1543 1537 1537 1533 1543 1539 1549 1560 1559 1560 1574 1584 1585 1583 1583 1581 1579 1575 1571
1549 1550 1550 1551 1551 1552 1552 1553 1552 1552 1551 1550 1551 1553 1555 1556 1551 1549 1546 1544 1543 1544 1544 1544 1543 1544 1550 1545 1556 1557 1552 1546 1545 1552 1557 1566 1580 1586 1587 1587 1585 1582 1579 1575 1570
1550 1551 1552 1552 1553 1553 1554 1554 1556 1557 1554 1560 1562 1559 1559 1556 1554 1550 1547 1546 1545 1544 1542 1548 1551 1563 1564 1564 1563 1557 1551 1545 1548 1559 1560 1568 1579 1586 1588 1585 1584 1583 1577 1572 1568
1551 1552 1553 1554 1555 1555 1555 1555 1554 1559 1562 1563 1563 1562 1560 1558 1557 1553 1549 1551 1547 1545 1545 1548 1565 1571 1569 1566 1559 1552 1551 1552 1550 1551 1558 1568 1578 1587 1588 1585 1585 1581 1576 1571 1565
1551 1553 1554 1555 1556 1557 1556 1556 1556 1557 1557 1565 1564 1564 1563 1563 1563 1560 1556 1556 1555 1553 1556 1561 1576 1573 1567 1568 1562 1552 1560 1562 1561 1552 1556 1562 1572 1581 1584 1586 1584 1580 1575 1570 1565
1551 1553 1555 1556 1560 1558 1558 1558 1558 1558 1550 1568 1567 1568 1567 1563 1567 1565 1562 1563 1561 1564 1564 1572 1577 1572 1570 1571 1571 1552 1561 1562 1557 1553 1545 1560 1554 1575 1583 1582 1580 1575 1573 1569 1563
1552 1553 1555 1557 1557 1559 1559 1558 1558 1559 1556 1572 1571 1570 1570 1568 1573 1570 1568 1567 1568 1569 1566 1586 1581 1580 1576 1581 1577 1566 1561 1553 1554 1553 1551 1558 1554 1575 1578 1580 1577 1575 1572 1567 1561
1552 1554 1555 1556 1557 1557 1558 1559 1559 1558 1570 1572 1575 1574 1569 1572 1574 1575 1573 1571 1573 1571 1575 1583 1587 1589 1589 1581 1580 1572 1550 1545 1552 1548 1543 1560 1562 1576 1586 1586 1581 1575 1572 1565 1558
1553 1554 1555 1556 1557 1557 1559 1560 1555 1556 1575 1576 1577 1576 1574 1577 1577 1579 1578 1581 1583 1573 1570 1579 1588 1591 1591 1577 1576 1575 1556 1544 1544 1544 1545 1551 1555 1583 1588 1584 1585 1577 1571 1564 1557
1554 1555 1555 1556 1557 1559 1560 1559 1560 1573 1574 1581 1580 1578 1577 1582 1582 1582 1578 1583 1592 1590 1577 1575 1571 1596 1600 1598 1597 1586 1581 1581 1590 1568 1564 1552 1558 1578 1585 1586 1585 1580 1572 1564 1556
1554 1555 1556 1557 1558 1560 1562 1554 1569 1572 1581 1580 1579 1573 1578 1582 1582 1582 1594 1599 1604 1602 1593 1587 1591 1603 1604 1602 1595 1590 1595 1602 1594 1572 1569 1547 1566 1580 1578 1583 1583 1578 1571 1563 1555
1556 1557 1557 1558 1560 1561 1559 1576 1580 1586 1587 1585 1577 1582 1577 1584 1580 1580 1592 1611 1609 1610 1608 1600 1591 1603 1605 1603 1603 1602 1604 1595 1590 1598 1586 1555 1561 1582 1579 1578 1578 1574 1569 1561 1552
1557 1559 1559 1560 1562 1563 1561 1578 1585 1589 1590 1586 1584 1584 1588 1589 1589 1590 1603 1614 1613 1611 1609 1604 1598 1600 1601 1613 1613 1605 1606 1603 1607 1604 1606 1585 1573 1590 1589 1586 1580 1575 1569 1561 1551
1559 1558 1560 1562 1565 1568 1570 1581 1587 1590 1591 1591 1591 1590 1591 1595 1595 1598 1604 1612 1617 1615 1609 1610 1603 1597 1613 1621 1621 1620 1618 1615 1615 1612 1607 1616 1597 1588 1590 1589 1586 1576 1568 1560 1551
1561 1562 1562 1563 1565 1574 1583 1587 1589 1590 1592 1592 1594 1596 1597 1598 1599 1604 1611 1620 1619 1617 1615 1613 1600 1593 1610 1620 1619 1620 1626 1626 1625 1625 1609 1621 1588 1593 1595 1590 1587 1577 1568 1560 1551
1562 1562 1565 1565 1566 1568 1575 1582 1589 1593 1595 1595 1597 1597 1597 1599 1602 1608 1612 1620 1620 1619 1619 1617 1608 1607 1606 1612 1623 1620 1627 1629 1625 1619 1617 1608 1601 1601 1596 1591 1583 1576 1571 1561 1553
1560 1563 1563 1567 1569 1569 1573 1579 1585 1591 1595 1596 1597 1597 1597 1604 1602 1607 1613 1619 1621 1620 1619 1616 1609 1613 1621 1623 1623 1623 1624 1626 1631 1625 1627 1614 1609 1599 1600 1595 1588 1579 1569 1560 1550
1560 1562 1565 1572 1572 1575 1579 1581 1582 1594 1594 1595 1594 1601 1599 1601 1607 1607 1611 1613 1615 1619 1619 1619 1612 1616 1616 1623 1623 1623 1624 1625 1621 1621 1620 1614 1606 1609 1603 1595 1588 1580 1569 1561 1553
1558 1560 1564 1574 1574 1573 1575 1579 1583 1589 1600 1598 1599 1600 1606 1613 1614 1615 1616 1618 1619 1618 1619 1619 1617 1614 1601 1622 1622 1616 1617 1622 1622 1620 1622 1615 1614 1610 1603 1596 1589 1579 1574 1565 1555